This is the latest recevied weather packets stored in our database for station/object VE8SKI. If no packets are shown the sender has not sent any weather packets the latest 10 day(s).
| Time | Temp. | Humidity | Pressure | Rain* | Wind** | Luminosity | Snow |
|---|---|---|---|---|---|---|---|
| 1777905184 | -2.22° C | 82% | 1026.1 hPa | 0 mm | 0.45 m/s, 153° | - | - |
| 1777904885 | -2.22° C | 82% | 1026.1 hPa | 0 mm | 0.45 m/s, 160° | - | - |
| 1777904582 | -2.22° C | 82% | 1026 hPa | 0 mm | 0.89 m/s, 167° | - | - |
| 1777904282 | -2.22° C | 83% | 1026.1 hPa | 0 mm | 0 m/s | - | - |
| 1777903983 | -2.22° C | 83% | 1026.1 hPa | 0 mm | 0.45 m/s, 146° | - | - |
| 1777903683 | -2.22° C | 83% | 1026.1 hPa | 0 mm | 0 m/s | - | - |
| 1777903383 | -2.22° C | 83% | 1026.1 hPa | 0 mm | 0.89 m/s, 135° | - | - |
| 1777903083 | -2.22° C | 84% | 1026.2 hPa | 0 mm | 0.89 m/s, 46° | - | - |
| 1777902781 | -2.22° C | 84% | 1026.1 hPa | 0 mm | 0.45 m/s, 42° | - | - |
| 1777902481 | -2.22° C | 84% | 1026.2 hPa | 0 mm | 0.89 m/s, 91° | - | - |
| 1777902181 | -2.22° C | 84% | 1026.1 hPa | 0 mm | 0.89 m/s, 183° | - | - |
| 1777901882 | -2.22° C | 85% | 1026.1 hPa | 0 mm | 0.89 m/s, 186° | - | - |
| 1777901582 | -2.22° C | 85% | 1026.1 hPa | 0 mm | 0.89 m/s, 177° | - | - |
| 1777901282 | -2.78° C | 85% | 1026.2 hPa | 0 mm | 0.45 m/s, 181° | - | - |
| 1777900980 | -2.22° C | 85% | 1026.2 hPa | 0 mm | 0.45 m/s, 114° | - | - |
| 1777900680 | -2.22° C | 86% | 1026.2 hPa | 0 mm | 1.34 m/s, 160° | - | - |
| 1777900380 | -2.22° C | 86% | 1026.1 hPa | 0 mm | 1.34 m/s, 142° | - | - |
| 1777900090 | -2.78° C | 86% | 1026.1 hPa | 0 mm | 0.89 m/s, 97° | - | - |
| 1777899781 | -2.78° C | 86% | 1026.2 hPa | 0 mm | 0 m/s | - | - |
| 1777899481 | -2.78° C | 87% | 1026.2 hPa | 0 mm | 0 m/s | - | - |
| 1777899179 | -2.78° C | 87% | 1026.2 hPa | 0 mm | 0.45 m/s, 69° | - | - |
| 1777898879 | -2.78° C | 87% | 1026.3 hPa | 0 mm | 1.34 m/s, 110° | - | - |
| 1777898579 | -2.78° C | 87% | 1026.3 hPa | 0 mm | 0.89 m/s, 117° | - | - |
| 1777898279 | -2.78° C | 87% | 1026.2 hPa | 0 mm | 1.79 m/s, 70° | - | - |
| 1777897979 | -2.78° C | 87% | 1026.3 hPa | 0 mm | 0.89 m/s, 149° | - | - |
* Rain latest hour (hover to see other rain measurements)
** Current wind speed in m/s (hover to see current wind gust speed)